CET,Max TemperatureF,Mean TemperatureF,Min TemperatureF,Max Dew PointF,MeanDew PointF,Min DewpointF,Max Humidity, Mean Humidity, Min Humidity, Max Sea Level PressureIn, Mean Sea Level PressureIn, Min Sea Level PressureIn, Max VisibilityMiles, Mean VisibilityMiles, Min VisibilityMiles, Max Wind SpeedMPH, Mean Wind SpeedMPH, Max Gust SpeedMPH,PrecipitationIn, CloudCover, Events, WindDirDegrees
2013-1-1,26,25,24,27,26,23,100,99,93,30.21,30.10,30.06,2,1,0,7,5,,0.00,8,Fog,97
2013-1-2,33,30,26,34,29,27,100,100,93,30.39,30.20,30.06,5,2,0,8,3,,0.00,8,Fog,270
2013-1-3,41,30,19,39,31,19,100,95,76,30.51,30.43,30.33,6,5,2,15,5,,0.00,7,,223
2013-1-4,50,46,41,41,38,34,93,78,58,30.30,30.21,30.06,6,6,6,26,15,40,0.00,5,Rain,274
2013-1-5,50,42,33,46,36,23,100,76,49,30.15,30.01,29.95,6,6,2,29,15,,0.00,4,,297
2013-1-6,37,34,32,34,27,23,100,76,56,30.18,30.08,29.98,6,3,1,15,9,25,0.00,7,Rain-Snow,295
2013-1-7,39,31,21,34,25,16,100,82,52,30.39,30.23,30.01,6,6,6,9,5,,0.00,5,,78
2013-1-8,28,18,8,25,18,7,100,87,64,30.39,30.33,30.21,6,3,1,10,2,,0.00,7,Snow,160
2013-1-9,28,26,23,28,26,23,100,98,86,30.21,30.18,30.12,3,2,0,10,5,,0.00,8,Fog-Snow,106
2013-1-10,30,26,23,30,27,23,100,99,93,30.09,29.90,29.77,1,0,0,10,6,,0.00,8,Fog-Snow,115
2013-1-11,37,32,26,37,29,23,100,93,75,29.98,29.81,29.74,6,2,0,21,6,,0.00,6,Fog-Rain-Snow,280
2013-1-12,32,28,23,28,23,18,100,82,55,30.09,30.04,29.98,6,4,1,16,10,,0.00,6,Snow,260
2013-1-13,30,26,23,28,25,23,100,91,80,30.12,30.09,30.06,5,3,1,12,5,,0.00,7,Snow,75
2013-1-14,33,30,26,34,28,21,100,89,74,30.06,29.97,29.89,6,4,1,20,13,31,0.00,8,Rain-Snow,70
2013-1-15,37,34,32,37,34,32,100,100,93,29.92,29.85,29.71,3,1,0,13,4,,0.00,8,Fog-Rain-Snow,41
2013-1-16,37,34,30,37,35,30,100,100,93,29.71,29.60,29.53,5,2,0,13,8,,0.00,7,Fog-Rain,330
2013-1-17,35,34,32,36,33,30,100,96,81,29.68,29.60,29.53,6,4,1,12,7,,0.00,7,Rain-Snow,27
2013-1-18,35,32,30,34,32,30,100,98,87,29.65,29.54,29.50,6,3,1,12,8,,0.00,8,Rain-Snow,327
2013-1-19,28,27,26,28,25,21,100,93,80,29.62,29.54,29.47,6,4,3,13,9,,0.00,7,Snow,239
2013-1-20,35,32,28,36,31,25,100,95,86,29.59,29.55,29.50,3,2,1,10,7,,0.00,7,Rain-Snow,73
2013-1-21,42,38,33,43,38,34,100,100,100,29.50,29.44,29.39,3,2,1,10,5,,0.00,6,Fog-Rain,23
2013-1-22,39,34,28,39,32,28,100,97,87,29.65,29.51,29.42,5,3,1,17,12,,0.00,7,Rain-Snow,290
2013-1-23,33,30,26,32,29,23,100,95,80,29.83,29.76,29.65,4,2,1,12,7,,0.00,7,Snow,258
2013-1-24,33,30,28,34,31,27,100,98,86,29.83,29.76,29.71,5,2,0,18,8,,0.00,7,Fog,31
2013-1-25,32,30,28,27,23,18,86,74,64,29.95,29.83,29.71,6,5,4,15,11,,0.00,6,,333
2013-1-26,32,28,24,25,21,18,100,74,55,30.04,29.97,29.92,6,6,4,10,8,,0.00,6,,344
2013-1-27,30,22,15,28,22,16,100,91,74,30.04,29.99,29.89,4,3,1,10,4,,0.00,6,Snow,203
2013-1-28,32,30,28,32,29,27,100,97,87,30.12,29.99,29.89,3,2,1,10,5,,0.00,7,Snow,126
2013-1-29,37,27,17,37,29,16,100,99,93,30.15,30.09,30.01,5,2,0,9,3,,0.00,6,Fog-Rain,191
2013-1-30,44,38,33,45,38,34,100,99,93,30.01,29.95,29.83,6,3,0,10,5,,0.00,7,Fog-Rain,210
2013-1-31,50,44,39,46,35,28,100,71,43,30.04,29.92,29.80,6,6,6,34,14,44,0.00,3,Rain,271